User: anonymous   Login
Location: Elmsmere
(40.9284°N, 73.8207°W)
Time: 19:53:22
(UTC+00:00)
Language:

STARLINK-2695 - Orbit

View from above orbital plane
View from above orbital plane
View from above satellite
View from above satellite

Ground track
Ground track

The orbit data is extracted from the following two-line orbital elements,

1 48644C 21044G   21268.48560753  .00007517  00000-0  50377-3 0  2688
2 48644  53.0551 221.9174 0001716  65.9056 324.3868 15.06383632    11
Epoch (UTC): 25 September 2021 11:39:16
Eccentricity: 0.0001716
inclination: 53.0551°
perigee height: 546 km
apogee height: 548 km
right ascension of ascending node: 221.9174°
argument of perigee: 65.9056°
revolutions per day: 15.06383632
mean anomaly at epoch: 324.3868°
orbit number at epoch: 1

The dashed part of the orbit path shows where the satellite is in the earth's shadow,  

DLR